M I D A S
Marine Information and Data Acquisition System
Tripno 959 of the Zeeleeuw from 2005-09-21 06:41:11 to 2005-09-21 13:26:59
Back to CruiseResearch ActivitiesStationsMapUnderway DataData graphs

EquipmentUnitsComments
TimeDGPSUTC
LatitudeDGPSDM.mWGS84
LongitudeDGPSDM.mWGS84
SpeedMeteo Stationm/sRelative wind speed
DirectionMeteo StationdegRelative wind direction
TemperatureMeteo Stationdeg CelciusAir temperature
PressureMeteo StationPaAtmospheric pressure
HumidityMeteo Station%Relative humidity
Missing or incorrect values are displayed as -999
Metereological data collected by the RV Zeeleeuw from 2005-09-21 06:38:15 to 2005-09-21 13:37:02
Time Latitude Longitude Speed Direction Temperature Pressure Humidity
2005-09-21 06:39 51°13.625 2°56.018 -999 134 12.3 102400 98
2005-09-21 06:40 51°13.655 2°55.912 -999 146 12.2 102400 98
2005-09-21 06:41 51°13.691 2°55.808 -999 162 12.2 102410 98
2005-09-21 06:42 51°13.707 2°55.74 -999 116 12.2 102410 98
2005-09-21 06:43 51°13.718 2°55.749 -999 172 12.2 102410 98
2005-09-21 06:44 51°13.726 2°55.734 -999 157 12.3 102410 98
2005-09-21 06:45 51°13.787 2°55.678 -999 346 12.4 102410 98
2005-09-21 06:46 51°13.878 2°55.6 -999 18 12.4 102410 98
2005-09-21 06:47 51°13.979 2°55.52 -999 8 12.5 102410 98
2005-09-21 06:48 51°14.085 2°55.442 -999 12 12.5 102410 98
2005-09-21 06:49 51°14.189 2°55.366 -999 18 12.6 102410 98
2005-09-21 06:50 51°14.286 2°55.24 -999 343 12.6 102410 98
2005-09-21 06:51 51°14.386 2°55.038 -999 342 12.8 102400 98
2005-09-21 06:52 51°14.498 2°54.816 -999 358 12.8 102400 98
2005-09-21 06:53 51°14.677 2°54.623 -999 5 12.9 102410 98
2005-09-21 06:54 51°14.843 2°54.397 -999 356 13 102410 98
2005-09-21 06:55 51°15.017 2°54.177 -999 355 13.2 102410 97
2005-09-21 06:56 51°15.189 2°53.966 -999 352 13.4 102410 97
2005-09-21 06:57 51°15.37 2°53.759 2.8 3 13.6 102420 97
2005-09-21 06:58 51°15.552 2°53.553 6.3 2 13.8 102420 97
2005-09-21 06:59 51°15.733 2°53.351 5.2 351 14 102420 96
2005-09-21 07:00 51°15.922 2°53.175 5.6 351 14.2 102420 95
2005-09-21 07:01 51°16.113 2°53.011 5.7 353 14.3 102420 94
2005-09-21 07:02 51°16.31 2°52.864 5.9 356 14.3 102410 94
2005-09-21 07:03 51°16.518 2°52.727 5.1 351 14.4 102420 93
2005-09-21 07:04 51°16.724 2°52.601 5.3 355 14.5 102420 92
2005-09-21 07:05 51°16.931 2°52.485 5 357 14.5 102420 91
2005-09-21 07:06 51°17.14 2°52.369 4.6 350 14.6 102420 90
2005-09-21 07:07 51°17.352 2°52.247 5.2 357 14.6 102420 89
2005-09-21 07:08 51°17.537 2°52.072 6.1 350 14.7 102420 88
2005-09-21 07:09 51°17.619 2°51.735 5.9 347 14.7 102410 87
2005-09-21 07:10 51°17.709 2°51.397 6.7 346 14.7 102420 86
2005-09-21 07:11 51°17.812 2°51.061 5.9 349 14.9 102420 86
2005-09-21 07:12 51°17.911 2°50.718 5.8 347 14.9 102420 87
2005-09-21 07:13 51°18.011 2°50.377 6.2 345 14.9 102420 86
2005-09-21 07:14 51°18.112 2°50.032 6.5 344 14.9 102420 85
2005-09-21 07:15 51°18.213 2°49.694 5.7 343 14.9 102420 85
2005-09-21 07:16 51°18.312 2°49.349 5.4 341 15 102420 85
2005-09-21 07:17 51°18.413 2°49.009 5 344 15 102420 85
2005-09-21 07:18 51°18.517 2°48.66 5.2 341 15 102420 85
2005-09-21 07:19 51°18.614 2°48.311 4.2 340 14.9 102420 85
2005-09-21 07:20 51°18.707 2°47.96 5.7 341 15 102420 85
2005-09-21 07:21 51°18.801 2°47.612 4.8 339 15 102420 85
2005-09-21 07:22 51°18.896 2°47.265 5.4 340 15 102420 85
2005-09-21 07:23 51°18.992 2°46.916 4.5 341 15 102420 84
2005-09-21 07:24 51°19.088 2°46.566 4.8 336 15 102420 83
2005-09-21 07:25 51°19.188 2°46.22 5.5 337 15.1 102420 83
2005-09-21 07:26 51°19.286 2°45.875 5.3 336 15.1 102410 83
2005-09-21 07:27 51°19.385 2°45.528 4.8 339 15.1 102420 82
2005-09-21 07:28 51°19.493 2°45.183 5.3 341 15.2 102420 83
2005-09-21 07:29 51°19.601 2°44.831 5.3 340 15.2 102420 83
2005-09-21 07:30 51°19.704 2°44.48 3.6 338 15.3 102420 83
2005-09-21 07:31 51°19.804 2°44.137 3.7 338 15.3 102420 82
2005-09-21 07:32 51°19.902 2°43.789 3.6 342 15.3 102420 82
2005-09-21 07:33 51°20.002 2°43.442 4.4 342 15.4 102420 82
2005-09-21 07:34 51°20.103 2°43.097 5.2 336 15.5 102420 83
2005-09-21 07:35 51°20.198 2°42.746 6.3 338 15.4 102420 81
2005-09-21 07:36 51°20.294 2°42.394 5.2 337 15.5 102420 80
2005-09-21 07:37 51°20.394 2°42.036 5.1 341 15.5 102420 80
2005-09-21 07:38 51°20.493 2°41.688 6.2 339 15.6 102420 80
2005-09-21 07:39 51°20.594 2°41.334 5.4 339 15.6 102420 80
2005-09-21 07:40 51°20.685 2°40.979 7.1 342 15.6 102420 79
2005-09-21 07:41 51°20.706 2°40.6 7.2 332 15.6 102420 79
2005-09-21 07:42 51°20.665 2°40.221 7.8 339 15.6 102410 80
2005-09-21 07:43 51°20.607 2°39.85 7.8 341 15.7 102410 81
2005-09-21 07:44 51°20.567 2°39.465 7.5 337 15.7 102410 81
2005-09-21 07:45 51°20.548 2°39.085 7.9 340 15.7 102410 80
2005-09-21 07:46 51°20.559 2°38.699 7.5 334 15.7 102410 80
2005-09-21 07:47 51°20.589 2°38.314 7.3 333 15.7 102410 81
2005-09-21 07:48 51°20.632 2°37.931 8 333 15.7 102410 81
2005-09-21 07:49 51°20.676 2°37.547 7.4 331 15.7 102410 81
2005-09-21 07:50 51°20.717 2°37.159 7.3 332 15.7 102410 81
2005-09-21 07:51 51°20.759 2°36.776 7.3 329 15.7 102410 81
2005-09-21 07:52 51°20.801 2°36.386 7.8 333 15.7 102410 82
2005-09-21 07:53 51°20.842 2°35.993 7.9 330 15.7 102410 81
2005-09-21 07:54 51°20.87 2°35.603 7.8 334 15.7 102410 82
2005-09-21 07:55 51°20.899 2°35.213 7.3 331 15.8 102410 82
2005-09-21 07:56 51°21.013 2°34.878 4.9 331 15.8 102420 81
2005-09-21 07:57 51°21.176 2°34.608 5.1 333 15.8 102420 81
2005-09-21 07:58 51°21.345 2°34.345 5.4 340 15.8 102420 80
2005-09-21 07:59 51°21.537 2°34.129 3.8 348 15.9 102420 80
2005-09-21 08:00 51°21.743 2°33.994 3.5 357 15.9 102430 80
2005-09-21 08:01 51°21.956 2°33.875 3.9 353 15.9 102430 80
2005-09-21 08:02 51°22.164 2°33.708 5.4 339 15.9 102420 80
2005-09-21 08:03 51°22.326 2°33.461 6.5 334 16 102430 79
2005-09-21 08:04 51°22.456 2°33.137 6.6 337 16 102420 78
2005-09-21 08:05 51°22.585 2°32.819 6.1 335 16 102420 79
2005-09-21 08:06 51°22.647 2°32.457 8.1 338 16.1 102420 78
2005-09-21 08:07 51°22.645 2°32.06 8.2 337 16.2 102420 78
2005-09-21 08:08 51°22.644 2°31.663 8 341 16.1 102420 77
2005-09-21 08:09 51°22.641 2°31.262 8.1 342 16.1 102410 78
2005-09-21 08:10 51°22.637 2°30.856 8 342 16.1 102420 77
2005-09-21 08:11 51°22.635 2°30.452 7.8 338 16.1 102410 77
2005-09-21 08:12 51°22.633 2°30.05 7.6 346 16.2 102420 77
2005-09-21 08:13 51°22.628 2°29.645 8.5 339 16.2 102410 78
2005-09-21 08:14 51°22.622 2°29.244 8.3 342 16.2 102410 78
2005-09-21 08:15 51°22.614 2°28.844 7.3 337 16.2 102420 77
2005-09-21 08:16 51°22.607 2°28.431 8.7 340 16.2 102420 78
2005-09-21 08:17 51°22.601 2°28.034 8.1 341 16.2 102420 77
2005-09-21 08:18 51°22.593 2°27.623 8.4 334 16.2 102420 77
2005-09-21 08:19 51°22.587 2°27.226 7.8 338 16.2 102410 78
2005-09-21 08:20 51°22.581 2°26.821 8.3 333 16.3 102420 78
2005-09-21 08:21 51°22.576 2°26.415 8 334 16.3 102410 78
2005-09-21 08:22 51°22.57 2°26.003 8.5 342 16.2 102410 78
2005-09-21 08:23 51°22.568 2°25.6 8.5 339 16.2 102420 77
2005-09-21 08:24 51°22.64 2°25.233 4.3 343 16.2 102420 77
2005-09-21 08:25 51°22.833 2°25.139 4.2 35 16.2 102430 77
2005-09-21 08:26 51°23.025 2°25.236 4.1 33 16.1 102430 76
2005-09-21 08:27 51°23.219 2°25.347 4.6 35 16.1 102420 78
2005-09-21 08:28 51°23.409 2°25.445 4.6 42 16.1 102430 77
2005-09-21 08:29 51°23.603 2°25.544 4.2 31 16.1 102430 78
2005-09-21 08:30 51°23.8 2°25.629 3.7 27 16.1 102430 77
2005-09-21 08:31 51°23.993 2°25.714 4.2 31 16.1 102420 76
2005-09-21 08:32 51°24.187 2°25.799 4.2 35 16.1 102430 77
2005-09-21 08:33 51°24.381 2°25.875 3.4 25 16.1 102420 77
2005-09-21 08:34 51°24.583 2°25.926 0.6 25 16.2 102420 77
2005-09-21 08:35 51°24.78 2°25.974 1.1 14 16.2 102430 77
2005-09-21 08:36 51°24.983 2°26.016 3.5 33 16.3 102430 78
2005-09-21 08:37 51°25.18 2°26.052 0.1 15 16.3 102430 78
2005-09-21 08:38 51°25.377 2°26.089 1.1 34 16.4 102420 78
2005-09-21 08:39 51°25.573 2°26.125 3.1 29 16.3 102430 77
2005-09-21 08:40 51°25.767 2°26.171 0.1 24 16.3 102430 78
2005-09-21 08:41 51°25.955 2°26.222 0.1 44 16.3 102430 77
2005-09-21 08:42 51°26.148 2°26.276 -999 30 16.3 102430 77
2005-09-21 08:43 51°26.337 2°26.326 -999 41 16.3 102430 77
2005-09-21 08:44 51°26.522 2°26.378 -999 30 16.2 102430 76
2005-09-21 08:45 51°26.713 2°26.429 2 38 16.3 102430 78
2005-09-21 08:46 51°26.901 2°26.478 0.1 29 16.3 102430 78
2005-09-21 08:47 51°27.092 2°26.526 0.2 23 16.4 102430 79
2005-09-21 08:48 51°27.284 2°26.575 -999 33 16.4 102430 79
2005-09-21 08:49 51°27.477 2°26.626 -999 32 16.4 102420 77
2005-09-21 08:50 51°27.671 2°26.677 0.1 30 16.3 102430 76
2005-09-21 08:51 51°27.865 2°26.73 -999 37 16.4 102420 77
2005-09-21 08:52 51°28.059 2°26.783 0.4 39 16.3 102420 78
2005-09-21 08:53 51°28.253 2°26.846 1.8 43 16.3 102420 78
2005-09-21 08:54 51°28.447 2°26.909 0.8 45 16.3 102420 79
2005-09-21 08:55 51°28.643 2°26.924 -999 2 16.3 102420 79
2005-09-21 08:56 51°28.844 2°26.849 -999 345 16.4 102420 78
2005-09-21 08:57 51°28.995 2°26.613 4.9 323 16.5 102420 77
2005-09-21 08:58 51°29.023 2°26.231 5.8 328 16.6 102410 77
2005-09-21 08:59 51°29.054 2°25.854 6.7 318 16.7 102400 77
2005-09-21 09:00 51°29.103 2°25.482 6.1 320 16.7 102410 77
2005-09-21 09:01 51°29.159 2°25.121 6.2 324 16.7 102410 77
2005-09-21 09:02 51°29.216 2°24.756 5.8 329 16.7 102410 76
2005-09-21 09:03 51°29.279 2°24.393 5.5 334 16.7 102400 76
2005-09-21 09:04 51°29.343 2°24.033 7.1 322 16.7 102410 76
2005-09-21 09:05 51°29.417 2°23.679 3.8 318 16.7 102410 76
2005-09-21 09:06 51°29.594 2°23.563 -999 35 16.7 102410 77
2005-09-21 09:07 51°29.758 2°23.705 3.5 44 16.6 102410 76
2005-09-21 09:08 51°29.903 2°23.892 3.5 42 16.5 102420 76
2005-09-21 09:09 51°30.045 2°24.083 3.3 42 16.4 102410 77
2005-09-21 09:10 51°30.185 2°24.274 2.4 36 16.4 102410 77
2005-09-21 09:11 51°30.338 2°24.438 2.9 34 16.4 102410 78
2005-09-21 09:12 51°30.493 2°24.6 2.5 44 16.4 102410 78
2005-09-21 09:13 51°30.65 2°24.762 3.5 40 16.4 102410 78
2005-09-21 09:14 51°30.802 2°24.923 3.5 42 16.4 102410 77
2005-09-21 09:15 51°30.95 2°25.082 2.5 36 16.4 102410 78
2005-09-21 09:16 51°31.103 2°25.244 2.8 44 16.4 102410 78
2005-09-21 09:17 51°31.254 2°25.402 3.1 52 16.5 102410 78
2005-09-21 09:18 51°31.409 2°25.554 3.3 45 16.4 102410 77
2005-09-21 09:19 51°31.565 2°25.709 3.1 39 16.4 102410 77
2005-09-21 09:20 51°31.724 2°25.867 1.5 34 16.4 102410 76
2005-09-21 09:21 51°31.879 2°26.025 2.7 36 16.4 102410 78
2005-09-21 09:22 51°32.04 2°26.183 2.8 34 16.4 102410 77
2005-09-21 09:23 51°32.195 2°26.335 0.7 44 16.4 102410 77
2005-09-21 09:24 51°32.356 2°26.49 4 42 16.5 102410 78
2005-09-21 09:25 51°32.513 2°26.643 2.7 48 16.4 102400 77
2005-09-21 09:26 51°32.673 2°26.799 2.5 35 16.4 102410 77
2005-09-21 09:27 51°32.831 2°26.954 1.4 52 16.4 102410 77
2005-09-21 09:28 51°32.99 2°27.11 1.7 38 16.4 102410 78
2005-09-21 09:29 51°33.147 2°27.271 2 34 16.4 102410 78
2005-09-21 09:30 51°33.304 2°27.436 1.9 45 16.4 102410 77
2005-09-21 09:31 51°33.461 2°27.598 1.9 39 16.4 102410 78
2005-09-21 09:32 51°33.618 2°27.755 4.2 52 16.4 102410 78
2005-09-21 09:33 51°33.779 2°27.906 2.8 37 16.4 102400 78
2005-09-21 09:34 51°33.941 2°28.057 2.8 41 16.6 102410 76
2005-09-21 09:35 51°34.102 2°28.209 2.4 30 16.5 102400 76
2005-09-21 09:36 51°34.262 2°28.363 -999 33 16.5 102400 75
2005-09-21 09:37 51°34.421 2°28.516 2.1 35 16.6 102400 76
2005-09-21 09:38 51°34.584 2°28.671 1.5 34 16.5 102400 75
2005-09-21 09:39 51°34.739 2°28.824 3 45 16.6 102400 77
2005-09-21 09:40 51°34.897 2°28.994 2.2 48 16.5 102400 76
2005-09-21 09:41 51°35.048 2°29.157 -999 46 16.5 102400 76
2005-09-21 09:42 51°35.202 2°29.319 -999 50 16.5 102400 76
2005-09-21 09:43 51°35.356 2°29.477 -999 43 16.5 102400 77
2005-09-21 09:44 51°35.508 2°29.635 -999 41 16.4 102400 76
2005-09-21 09:45 51°35.663 2°29.798 2.1 48 16.5 102400 77
2005-09-21 09:46 51°35.814 2°29.958 -999 53 16.4 102400 76
2005-09-21 09:47 51°35.969 2°30.122 -999 44 16.4 102400 76
2005-09-21 09:48 51°36.116 2°30.279 -999 43 16.5 102390 77
2005-09-21 09:49 51°36.267 2°30.438 -999 42 16.5 102400 77
2005-09-21 09:50 51°36.418 2°30.6 -999 39 16.5 102400 77
2005-09-21 09:51 51°36.569 2°30.763 -999 51 16.5 102390 77
2005-09-21 09:52 51°36.72 2°30.927 -999 50 16.5 102390 76
2005-09-21 09:53 51°36.871 2°31.083 -999 40 16.5 102390 76
2005-09-21 09:54 51°37.028 2°31.234 -999 32 16.5 102390 76
2005-09-21 09:55 51°37.186 2°31.385 -999 38 16.5 102390 76
2005-09-21 09:56 51°37.338 2°31.533 -999 32 16.6 102390 76
2005-09-21 09:57 51°37.497 2°31.687 -999 39 16.6 102390 76
2005-09-21 09:58 51°37.655 2°31.84 -999 37 16.6 102390 76
2005-09-21 09:59 51°37.811 2°31.988 -999 47 16.6 102390 76
2005-09-21 10:00 51°37.965 2°32.141 -999 42 16.6 102390 76
2005-09-21 10:01 51°38.125 2°32.297 -999 34 16.6 102380 77
2005-09-21 10:02 51°38.281 2°32.447 -999 40 16.6 102380 77
2005-09-21 10:03 51°38.441 2°32.604 -999 39 16.6 102380 77
2005-09-21 10:04 51°38.597 2°32.757 -999 44 16.5 102380 73
2005-09-21 10:05 51°38.756 2°32.915 -999 44 16.6 102380 70
2005-09-21 10:06 51°38.918 2°33.074 -999 46 16.6 102380 70
2005-09-21 10:07 51°39.078 2°33.229 -999 40 16.6 102370 69
2005-09-21 10:08 51°39.234 2°33.397 -999 33 16.6 102380 71
2005-09-21 10:09 51°39.393 2°33.564 -999 40 16.6 102380 71
2005-09-21 10:10 51°39.555 2°33.722 -999 41 16.6 102370 72
2005-09-21 10:11 51°39.716 2°33.878 -999 46 16.6 102370 72
2005-09-21 10:12 51°39.879 2°34.034 -999 40 16.6 102370 73
2005-09-21 10:13 51°40.042 2°34.191 -999 44 16.6 102370 74
2005-09-21 10:14 51°40.209 2°34.35 -999 49 16.6 102370 74
2005-09-21 10:15 51°40.365 2°34.509 -999 45 16.6 102370 73
2005-09-21 10:16 51°40.524 2°34.676 -999 41 16.6 102370 74
2005-09-21 10:17 51°40.683 2°34.84 -999 38 16.6 102370 75
2005-09-21 10:18 51°40.842 2°35.003 -999 39 16.6 102360 74
2005-09-21 10:19 51°41.001 2°35.169 -999 52 16.6 102360 73
2005-09-21 10:20 51°41.139 2°35.381 -999 41 16.6 102360 74
2005-09-21 10:21 51°41.195 2°35.67 7.3 40 16.6 102360 74
2005-09-21 10:22 51°41.184 2°35.988 9.8 32 16.6 102360 74
2005-09-21 10:23 51°41.065 2°36.261 8.6 22 16.7 102340 74
2005-09-21 10:24 51°40.95 2°36.54 9.1 27 16.9 102340 72
2005-09-21 10:25 51°40.84 2°36.839 9.7 29 17 102340 73
2005-09-21 10:26 51°40.73 2°37.138 9.5 24 17 102340 71
2005-09-21 10:27 51°40.622 2°37.432 9.4 34 17 102340 71
2005-09-21 10:28 51°40.511 2°37.737 9.5 23 17 102340 73
2005-09-21 10:29 51°40.406 2°38.036 9.7 26 17 102340 72
2005-09-21 10:30 51°40.301 2°38.339 9.2 24 17 102340 70
2005-09-21 10:31 51°40.195 2°38.64 10.1 26 17.1 102330 71
2005-09-21 10:32 51°40.09 2°38.939 8.9 27 17 102340 70
2005-09-21 10:33 51°39.988 2°39.238 9.4 30 17 102340 70
2005-09-21 10:34 51°39.886 2°39.535 9.2 29 16.9 102340 70
2005-09-21 10:35 51°39.784 2°39.834 8.8 28 16.9 102340 69
2005-09-21 10:36 51°39.681 2°40.126 9.1 24 17 102340 69
2005-09-21 10:37 51°39.583 2°40.428 8.9 25 17 102340 69
2005-09-21 10:38 51°39.48 2°40.733 8.8 33 17 102340 69
2005-09-21 10:39 51°39.371 2°41.023 9.5 19 17 102340 69
2005-09-21 10:40 51°39.231 2°41.287 9 21 17.1 102340 68
2005-09-21 10:41 51°39.091 2°41.541 8.9 26 17.1 102340 71
2005-09-21 10:42 51°38.911 2°41.734 10.2 8 17.2 102340 71
2005-09-21 10:43 51°38.672 2°41.767 9.6 8 17.1 102340 69
2005-09-21 10:44 51°38.431 2°41.796 10.5 10 17.1 102330 71
2005-09-21 10:45 51°38.191 2°41.824 9.2 6 17.1 102340 70
2005-09-21 10:46 51°37.949 2°41.853 10.6 3 17.1 102340 71
2005-09-21 10:47 51°37.704 2°41.877 10.4 4 17.1 102340 71
2005-09-21 10:48 51°37.472 2°41.783 9.1 342 17 102340 70
2005-09-21 10:49 51°37.359 2°41.435 6.8 340 17.1 102340 69
2005-09-21 10:50 51°37.327 2°41.034 6.3 335 17.1 102350 68
2005-09-21 10:51 51°37.332 2°40.645 6.3 340 17.1 102350 70
2005-09-21 10:52 51°37.342 2°40.251 6.1 334 17.1 102340 71
2005-09-21 10:53 51°37.351 2°39.874 6.7 337 17.1 102340 70
2005-09-21 10:54 51°37.358 2°39.489 6.1 334 17.2 102340 71
2005-09-21 10:55 51°37.365 2°39.103 6.8 333 17.1 102350 71
2005-09-21 10:56 51°37.371 2°38.724 5.4 333 17.1 102340 69
2005-09-21 10:57 51°37.383 2°38.346 6.6 334 17.1 102340 71
2005-09-21 10:58 51°37.4 2°37.962 5.9 337 17.1 102340 71
2005-09-21 10:59 51°37.417 2°37.584 5.3 332 17.1 102350 70
2005-09-21 11:00 51°37.435 2°37.206 6.4 340 17.1 102340 71
2005-09-21 11:01 51°37.452 2°36.828 5.8 339 17.1 102340 70
2005-09-21 11:02 51°37.468 2°36.457 6.4 338 17.2 102340 71
2005-09-21 11:03 51°37.484 2°36.067 5.7 334 17.1 102340 71
2005-09-21 11:04 51°37.498 2°35.697 6.5 338 17.1 102340 70
2005-09-21 11:05 51°37.512 2°35.307 6 332 17.1 102340 70
2005-09-21 11:06 51°37.521 2°34.92 5.5 333 17.1 102340 70
2005-09-21 11:07 51°37.531 2°34.53 6.9 343 17.1 102340 70
2005-09-21 11:08 51°37.483 2°34.144 8.1 343 17.2 102340 71
2005-09-21 11:09 51°37.346 2°33.828 9.3 359 17.2 102330 71
2005-09-21 11:10 51°37.133 2°33.623 9.4 358 17.3 102330 70
2005-09-21 11:11 51°36.919 2°33.42 9 358 17.3 102330 67
2005-09-21 11:12 51°36.709 2°33.22 9.3 359 17.4 102330 69
2005-09-21 11:13 51°36.467 2°33.131 9.8 10 17.3 102330 69
2005-09-21 11:14 51°36.228 2°33.058 9.4 4 17.2 102330 70
2005-09-21 11:15 51°35.988 2°32.982 9.1 4 17.2 102330 69
2005-09-21 11:16 51°35.745 2°32.905 9.2 3 17.2 102330 69
2005-09-21 11:17 51°35.508 2°32.828 9.2 7 17.2 102330 69
2005-09-21 11:18 51°35.268 2°32.751 8.7 4 17.1 102330 68
2005-09-21 11:19 51°35.029 2°32.672 9.1 -999 17.1 102330 68
2005-09-21 11:20 51°34.786 2°32.595 9.4 -999 17.2 102330 69
2005-09-21 11:21 51°34.55 2°32.517 9.4 3 17.2 102330 68
2005-09-21 11:22 51°34.316 2°32.44 9.4 9 17.2 102330 68
2005-09-21 11:23 51°34.072 2°32.357 9.4 8 17.2 102330 69
2005-09-21 11:24 51°33.84 2°32.279 8.5 4 17.1 102330 69
2005-09-21 11:25 51°33.596 2°32.202 9.1 4 17.1 102330 68
2005-09-21 11:26 51°33.365 2°32.127 9 2 17.1 102330 69
2005-09-21 11:27 51°33.124 2°32.05 9.5 5 17.1 102320 69
2005-09-21 11:28 51°32.886 2°31.977 9.4 8 17.1 102320 69
2005-09-21 11:29 51°32.643 2°31.935 9.6 5 17.2 102320 69
2005-09-21 11:30 51°32.393 2°31.927 9.5 3 17.1 102320 68
2005-09-21 11:31 51°32.15 2°31.922 8.9 4 17.2 102320 67
2005-09-21 11:32 51°31.908 2°31.916 9 10 17.1 102310 67
2005-09-21 11:33 51°31.666 2°31.959 9.6 9 17.1 102310 67
2005-09-21 11:34 51°31.428 2°32.012 9.3 13 17.2 102320 67
2005-09-21 11:35 51°31.2 2°32.079 8.9 13 17.2 102320 67
2005-09-21 11:36 51°30.981 2°32.232 9.7 16 17.2 102320 67
2005-09-21 11:37 51°30.778 2°32.394 8.5 18 17.2 102310 66
2005-09-21 11:38 51°30.575 2°32.558 9 10 17.2 102310 68
2005-09-21 11:39 51°30.363 2°32.725 9.3 18 17.2 102310 68
2005-09-21 11:40 51°30.163 2°32.884 9.2 13 17.2 102310 68
2005-09-21 11:41 51°29.966 2°33.062 9.5 18 17.2 102300 68
2005-09-21 11:42 51°29.784 2°33.283 9.1 20 17.2 102310 68
2005-09-21 11:43 51°29.695 2°33.572 7.1 30 17.2 102310 68
2005-09-21 11:44 51°29.661 2°33.897 8.3 30 17.2 102310 68
2005-09-21 11:45 51°29.624 2°34.22 -999 32 17.1 102300 68
2005-09-21 11:46 51°29.592 2°34.548 -999 32 17 102300 68
2005-09-21 11:47 51°29.561 2°34.878 -999 34 17 102310 70
2005-09-21 11:48 51°29.53 2°35.212 -999 34 16.9 102300 68
2005-09-21 11:49 51°29.495 2°35.557 -999 27 17 102300 70
2005-09-21 11:50 51°29.467 2°35.886 -999 30 17 102300 71
2005-09-21 11:51 51°29.437 2°36.222 -999 24 17.1 102300 70
2005-09-21 11:52 51°29.404 2°36.565 -999 27 17.1 102300 70
2005-09-21 11:53 51°29.319 2°36.878 -999 24 17.2 102300 70
2005-09-21 11:54 51°29.228 2°37.197 -999 22 17.2 102300 69
2005-09-21 11:55 51°29.135 2°37.507 -999 24 17.2 102290 69
2005-09-21 11:56 51°29.032 2°37.812 -999 17 17.2 102300 70
2005-09-21 11:57 51°28.822 2°37.948 -999 7 17.2 102300 69
2005-09-21 11:58 51°28.595 2°38.052 -999 8 17.6 102290 70
2005-09-21 11:59 51°28.372 2°38.178 -999 5 17.2 102290 69
2005-09-21 12:00 51°28.159 2°38.32 8.8 4 17.2 102290 70
2005-09-21 12:01 51°27.939 2°38.453 10.2 5 17.2 102290 68
2005-09-21 12:02 51°27.725 2°38.58 10.5 5 17.2 102290 69
2005-09-21 12:03 51°27.505 2°38.712 10.5 1 17.2 102280 69
2005-09-21 12:04 51°27.281 2°38.83 10.1 8 17.2 102290 68
2005-09-21 12:05 51°27.056 2°38.942 9.9 7 17.1 102290 68
2005-09-21 12:06 51°26.832 2°39.055 9.8 5 17.1 102280 69
2005-09-21 12:07 51°26.607 2°39.171 9.4 2 17.1 102280 68
2005-09-21 12:08 51°26.379 2°39.288 9.5 1 17.1 102280 69
2005-09-21 12:09 51°26.161 2°39.401 9.2 3 17.2 102280 69
2005-09-21 12:10 51°25.942 2°39.506 9.2 2 17.2 102280 70
2005-09-21 12:11 51°25.732 2°39.606 9.1 3 17.2 102280 70
2005-09-21 12:12 51°25.511 2°39.712 -999 1 17.2 102280 70
2005-09-21 12:13 51°25.295 2°39.82 -999 3 17.1 102280 69
2005-09-21 12:14 51°25.08 2°39.93 -999 360 17.2 102280 70
2005-09-21 12:15 51°24.861 2°40.041 -999 3 17.2 102280 71
2005-09-21 12:16 51°24.645 2°40.137 -999 -999 17.2 102280 70
2005-09-21 12:17 51°24.423 2°40.224 -999 358 17.2 102280 69
2005-09-21 12:18 51°24.19 2°40.282 -999 357 17.2 102280 69
2005-09-21 12:19 51°23.962 2°40.343 -999 356 17.2 102270 69
2005-09-21 12:20 51°23.737 2°40.408 -999 358 17.3 102270 68
2005-09-21 12:21 51°23.503 2°40.472 -999 355 17.3 102270 68
2005-09-21 12:22 51°23.273 2°40.511 -999 357 17.3 102270 68
2005-09-21 12:23 51°23.046 2°40.553 -999 356 17.3 102270 67
2005-09-21 12:24 51°22.818 2°40.575 -999 356 17.3 102270 69
2005-09-21 12:25 51°22.598 2°40.588 -999 358 17.3 102270 69
2005-09-21 12:26 51°22.365 2°40.589 -999 359 17.3 102270 68
2005-09-21 12:27 51°22.145 2°40.655 -999 359 17.3 102270 68
2005-09-21 12:28 51°21.927 2°40.73 -999 357 17.3 102270 68
2005-09-21 12:29 51°21.709 2°40.829 -999 359 17.3 102270 68
2005-09-21 12:30 51°21.499 2°40.963 -999 356 17.3 102260 68
2005-09-21 12:31 51°21.284 2°41.105 -999 358 17.4 102260 69
2005-09-21 12:32 51°21.087 2°41.264 -999 359 17.3 102260 68
2005-09-21 12:33 51°20.898 2°41.471 -999 358 17.3 102260 67
2005-09-21 12:34 51°20.72 2°41.711 -999 1 17.3 102250 67
2005-09-21 12:35 51°20.615 2°42.021 -999 4 17.3 102260 66
2005-09-21 12:36 51°20.503 2°42.352 -999 3 17.3 102250 67
2005-09-21 12:37 51°20.39 2°42.666 -999 3 17.2 102260 67
2005-09-21 12:38 51°20.277 2°42.989 -999 -999 17.2 102250 67
2005-09-21 12:39 51°20.166 2°43.303 -999 359 17.2 102260 68
2005-09-21 12:40 51°20.054 2°43.609 -999 -999 17.3 102250 68
2005-09-21 12:41 51°19.951 2°43.916 -999 359 17.4 102250 67
2005-09-21 12:42 51°19.848 2°44.241 -999 357 17.3 102250 66
2005-09-21 12:43 51°19.748 2°44.559 -999 357 17.3 102250 66
2005-09-21 12:44 51°19.664 2°44.886 -999 356 17.3 102240 67
2005-09-21 12:45 51°19.57 2°45.227 -999 357 17.3 102250 67
2005-09-21 12:46 51°19.473 2°45.566 -999 355 17.3 102250 67
2005-09-21 12:47 51°19.377 2°45.904 -999 354 17.3 102240 66
2005-09-21 12:48 51°19.28 2°46.24 -999 355 17.3 102240 66
2005-09-21 12:49 51°19.185 2°46.563 -999 352 17.4 102240 67
2005-09-21 12:50 51°19.086 2°46.897 -999 351 17.4 102240 67
2005-09-21 12:51 51°18.99 2°47.223 -999 353 17.4 102240 66
2005-09-21 12:52 51°18.889 2°47.552 -999 355 17.4 102240 65
2005-09-21 12:53 51°18.795 2°47.879 -999 350 17.5 102240 66
2005-09-21 12:54 51°18.701 2°48.205 -999 354 17.5 102240 66
2005-09-21 12:55 51°18.602 2°48.547 -999 352 17.6 102240 66
2005-09-21 12:56 51°18.509 2°48.882 -999 349 17.6 102230 65
2005-09-21 12:57 51°18.412 2°49.225 -999 350 17.6 102230 67
2005-09-21 12:58 51°18.317 2°49.565 -999 349 17.6 102230 66
2005-09-21 12:59 51°18.224 2°49.894 -999 347 17.6 102230 66
2005-09-21 13:00 51°18.125 2°50.232 -999 348 17.6 102230 65
2005-09-21 13:01 51°18.029 2°50.567 -999 343 17.6 102230 63
2005-09-21 13:02 51°17.935 2°50.9 -999 346 17.6 102220 66
2005-09-21 13:03 51°17.833 2°51.227 -999 346 17.6 102230 66
2005-09-21 13:04 51°17.724 2°51.534 -999 345 17.6 102220 66
2005-09-21 13:05 51°17.592 2°51.842 -999 342 17.6 102220 67
2005-09-21 13:06 51°17.421 2°52.073 -999 335 17.6 102220 68
2005-09-21 13:07 51°17.239 2°52.277 -999 335 17.5 102220 68
2005-09-21 13:08 51°17.056 2°52.489 -999 335 17.4 102210 68
2005-09-21 13:09 51°16.865 2°52.656 -999 326 17.4 102210 69
2005-09-21 13:10 51°16.662 2°52.81 -999 332 17.4 102220 70
2005-09-21 13:11 51°16.461 2°52.945 -999 331 17.3 102210 70
2005-09-21 13:12 51°16.262 2°53.074 -999 329 17.3 102210 70
2005-09-21 13:13 51°16.055 2°53.21 -999 330 17.3 102210 71
2005-09-21 13:14 51°15.853 2°53.345 -999 326 17.3 102210 71
2005-09-21 13:15 51°15.654 2°53.459 -999 327 17.3 102210 72
2005-09-21 13:16 51°15.452 2°53.577 -999 319 17.3 102220 72
2005-09-21 13:17 51°15.319 2°53.68 -999 319 17.3 102210 71
2005-09-21 13:18 51°15.12 2°53.79 -999 324 17.3 102210 70
2005-09-21 13:19 51°14.943 2°53.957 -999 324 17.4 102210 71
2005-09-21 13:20 51°14.788 2°54.206 -999 327 17.4 102200 71
2005-09-21 13:21 51°14.637 2°54.479 -999 326 17.4 102200 71
2005-09-21 13:22 51°14.501 2°54.749 -999 325 17.3 102190 71
2005-09-21 13:23 51°14.369 2°55.053 -999 328 17.3 102190 70
2005-09-21 13:24 51°14.265 2°55.238 -999 324 17.3 102200 71
2005-09-21 13:25 51°14.165 2°55.401 -999 316 17.3 102200 70
2005-09-21 13:26 51°14.04 2°55.506 -999 313 17.4 102200 71
2005-09-21 13:27 51°13.919 2°55.577 -999 285 17.6 102200 72
2005-09-21 13:28 51°13.812 2°55.645 -999 286 17.7 102200 71
2005-09-21 13:29 51°13.731 2°55.738 -999 274 17.8 102200 70
2005-09-21 13:30 51°13.678 2°55.844 -999 314 17.9 102190 68
2005-09-21 13:31 51°13.641 2°55.941 -999 293 18.1 102190 67
2005-09-21 13:32 51°13.617 2°56.023 -999 287 18.2 102190 66
2005-09-21 13:33 51°13.604 2°56.082 -999 275 18.4 102190 64
2005-09-21 13:34 51°13.599 2°56.094 -999 251 18.5 102190 63
2005-09-21 13:35 51°13.599 2°56.099 -999 260 18.5 102190 61
2005-09-21 13:36 51°13.599 2°56.099 -999 268 18.5 102190 61